CCA9691 ZBAA-ZBSJ

Flight info

Callsign CCA9691
Flight time N/A
Altitude 30100
Route OMDEK2G OMDEK W37 LOVTI W623 LIKTI LIKTI9YA
Aircraft B78X/H-SDE1E2E3FGHIJ2J3J4J5M1RWXY/LB1D1

Departure

Time N/A
Airport Beijing Capital International Airport (ZBAA)

Arrival

Time 2026-05-07 19:41
Airport Shijiazhuang Zhengding International Airport (ZBSJ)
Time Latitude Longitude Altitude Speed Heading
2026-05-07 19:04 39.37304 116.81285 19360 ft 486 kts 152°
2026-05-07 19:04 39.34318 116.83407 19900 ft 492 kts 154°
2026-05-07 19:05 39.31161 116.85133 20444 ft 496 kts 161°
2026-05-07 19:05 39.27918 116.86748 20994 ft 502 kts 161°
2026-05-07 19:05 39.24639 116.88378 21567 ft 507 kts 161°
2026-05-07 19:05 39.21342 116.90052 22135 ft 512 kts 161°
2026-05-07 19:06 39.17976 116.91582 22716 ft 513 kts 169°
2026-05-07 19:06 39.10959 116.92084 23900 ft 501 kts 195°
2026-05-07 19:06 39.07617 116.90995 24427 ft 491 kts 207°
2026-05-07 19:07 39.04512 116.89232 24945 ft 485 kts 214°
2026-05-07 19:07 39.01528 116.87203 25475 ft 485 kts 217°
2026-05-07 19:07 38.98558 116.85140 26000 ft 488 kts 215°
2026-05-07 19:07 38.95441 116.83329 26544 ft 495 kts 210°
2026-05-07 19:08 38.92212 116.81756 27102 ft 498 kts 208°
2026-05-07 19:08 38.88977 116.80181 27660 ft 495 kts 210°
2026-05-07 19:08 38.85833 116.78409 28240 ft 492 kts 213°
2026-05-07 19:08 38.82709 116.76595 28818 ft 494 kts 212°
2026-05-07 19:09 38.79540 116.74889 29416 ft 495 kts 210°
2026-05-07 19:09 38.76373 116.73181 29979 ft 490 kts 216°
2026-05-07 19:09 38.73474 116.70938 30117 ft 486 kts 225°
2026-05-07 19:09 38.70896 116.68149 30124 ft 486 kts 233°
2026-05-07 19:10 38.66916 116.61228 30122 ft 483 kts 250°
2026-05-07 19:10 38.64820 116.53259 30128 ft 467 kts 266°
2026-05-07 19:11 38.64510 116.49209 30118 ft 444 kts 274°
2026-05-07 19:11 38.64575 116.45367 30111 ft 423 kts 277°
2026-05-07 19:11 38.64657 116.41680 30102 ft 406 kts 277°
2026-05-07 19:11 38.64754 116.38111 30102 ft 400 kts 277°
2026-05-07 19:12 38.64958 116.30923 30107 ft 404 kts 277°
2026-05-07 19:12 38.64928 116.23702 30112 ft 411 kts 269°
2026-05-07 19:13 38.63450 116.16553 30123 ft 424 kts 253°
2026-05-07 19:13 38.62093 116.13187 29836 ft 429 kts 245°
2026-05-07 19:13 38.60323 116.10072 29189 ft 438 kts 236°
2026-05-07 19:14 38.58192 116.07332 29311 ft 436 kts 229°
2026-05-07 19:14 38.55702 116.04968 29330 ft 456 kts 219°
2026-05-07 19:14 38.49841 116.01607 29326 ft 467 kts 208°
2026-05-07 19:15 38.43763 115.98706 29323 ft 465 kts 208°
2026-05-07 19:15 38.37723 115.95843 29207 ft 458 kts 208°
2026-05-07 19:16 38.31857 115.93060 29084 ft 441 kts 208°
2026-05-07 19:16 38.28988 115.91743 28960 ft 439 kts 204°
2026-05-07 19:16 38.25976 115.90965 28777 ft 445 kts 194°
2026-05-07 19:17 38.22913 115.90474 28516 ft 443 kts 195°
2026-05-07 19:17 38.19857 115.89991 28234 ft 442 kts 194°
2026-05-07 19:17 38.16804 115.89517 27931 ft 442 kts 194°
2026-05-07 19:17 38.13755 115.89038 27618 ft 441 kts 194°
2026-05-07 19:18 38.10708 115.88556 27296 ft 442 kts 194°
2026-05-07 19:18 38.07655 115.88078 26961 ft 443 kts 194°
2026-05-07 19:18 38.04596 115.87604 26620 ft 443 kts 194°
2026-05-07 19:18 38.01529 115.87127 26277 ft 444 kts 194°
2026-05-07 19:19 37.98455 115.86647 25922 ft 446 kts 194°
2026-05-07 19:19 37.95378 115.86167 25567 ft 447 kts 193°
2026-05-07 19:19 37.92286 115.85687 25212 ft 448 kts 193°
2026-05-07 19:19 37.89197 115.85164 24853 ft 445 kts 198°
2026-05-07 19:20 37.86325 115.83915 24537 ft 430 kts 215°
2026-05-07 19:20 37.83917 115.81805 24205 ft 415 kts 231°
2026-05-07 19:20 37.82151 115.79063 23866 ft 401 kts 247°
2026-05-07 19:20 37.81105 115.75867 23459 ft 389 kts 263°
2026-05-07 19:21 37.80838 115.72509 22994 ft 381 kts 277°
2026-05-07 19:21 37.81218 115.69222 22521 ft 377 kts 289°
2026-05-07 19:21 37.82205 115.66168 22022 ft 375 kts 302°
2026-05-07 19:21 37.83720 115.63488 21513 ft 376 kts 310°
2026-05-07 19:22 37.85401 115.60928 21001 ft 380 kts 310°
2026-05-07 19:22 37.87073 115.58336 20588 ft 380 kts 309°
2026-05-07 19:22 37.88705 115.55717 20271 ft 378 kts 309°
2026-05-07 19:22 37.90329 115.53117 19960 ft 377 kts 310°
2026-05-07 19:23 37.91958 115.50544 19649 ft 375 kts 310°
2026-05-07 19:23 37.93602 115.47948 19341 ft 374 kts 310°
2026-05-07 19:23 37.95202 115.45357 19040 ft 373 kts 306°
2026-05-07 19:23 37.96488 115.42491 18740 ft 375 kts 297°
2026-05-07 19:24 37.97393 115.39399 18604 ft 372 kts 292°
2026-05-07 19:24 37.98220 115.36335 18571 ft 364 kts 292°
2026-05-07 19:24 37.99031 115.33318 18541 ft 358 kts 292°
2026-05-07 19:24 37.99821 115.30357 18504 ft 352 kts 292°
2026-05-07 19:25 38.00601 115.27438 18471 ft 347 kts 292°
2026-05-07 19:25 38.01371 115.24555 18443 ft 343 kts 292°
2026-05-07 19:25 38.01885 115.22630 18416 ft 340 kts 292°
2026-05-07 19:25 38.02880 115.18898 18386 ft 335 kts 292°
2026-05-07 19:26 38.03621 115.16114 18361 ft 331 kts 292°
2026-05-07 19:26 38.04116 115.14248 18351 ft 329 kts 292°
2026-05-07 19:26 38.05079 115.10623 18308 ft 326 kts 292°
2026-05-07 19:26 38.05798 115.07915 18293 ft 323 kts 292°
2026-05-07 19:27 38.06272 115.06127 18281 ft 321 kts 292°
2026-05-07 19:27 38.06980 115.03451 18256 ft 319 kts 292°
2026-05-07 19:27 38.07685 115.00786 18233 ft 317 kts 292°
2026-05-07 19:27 38.08385 114.98138 18215 ft 315 kts 292°
2026-05-07 19:28 38.09079 114.95510 18196 ft 313 kts 292°
2026-05-07 19:28 38.09769 114.92891 18177 ft 312 kts 292°
2026-05-07 19:28 38.10455 114.90288 18161 ft 310 kts 291°
2026-05-07 19:28 38.11137 114.87697 18146 ft 309 kts 291°
2026-05-07 19:29 38.11818 114.85115 18134 ft 307 kts 293°
2026-05-07 19:29 38.12796 114.82748 18138 ft 301 kts 308°
2026-05-07 19:29 38.14238 114.80857 18156 ft 298 kts 323°
2026-05-07 19:29 38.15967 114.79423 18158 ft 296 kts 327°
2026-05-07 19:30 38.17709 114.78027 18153 ft 295 kts 327°
2026-05-07 19:30 38.19450 114.76647 18145 ft 293 kts 327°
2026-05-07 19:30 38.21155 114.75293 18095 ft 283 kts 327°
2026-05-07 19:30 38.22816 114.74031 17866 ft 277 kts 335°
2026-05-07 19:31 38.24675 114.73416 17495 ft 276 kts 345°
2026-05-07 19:31 38.26555 114.72919 17113 ft 275 kts 345°
2026-05-07 19:31 38.28423 114.72425 16736 ft 273 kts 345°
2026-05-07 19:31 38.30279 114.71925 16390 ft 272 kts 345°
2026-05-07 19:32 38.32125 114.71425 16014 ft 271 kts 345°
2026-05-07 19:32 38.33962 114.70930 15657 ft 269 kts 345°
2026-05-07 19:32 38.35788 114.70439 15305 ft 268 kts 345°
2026-05-07 19:32 38.37605 114.69949 14960 ft 266 kts 345°
2026-05-07 19:33 38.39411 114.69462 14621 ft 265 kts 345°
2026-05-07 19:33 38.41137 114.68744 14282 ft 259 kts 328°
2026-05-07 19:33 38.42552 114.67353 13966 ft 257 kts 314°
2026-05-07 19:33 38.43583 114.65442 13166 ft 275 kts 290°
2026-05-07 19:34 38.43711 114.62856 11760 ft 313 kts 260°
2026-05-07 19:34 38.42765 114.60316 10406 ft 327 kts 232°
2026-05-07 19:34 38.40958 114.58526 9009 ft 336 kts 205°
2026-05-07 19:34 38.38670 114.57893 7591 ft 341 kts 179°
2026-05-07 19:35 38.36318 114.58036 6172 ft 336 kts 185°
2026-05-07 19:35 38.34203 114.57001 5455 ft 313 kts 218°
2026-05-07 19:35 38.32986 114.54977 5381 ft 272 kts 253°
2026-05-07 19:35 38.32916 114.52767 5327 ft 238 kts 290°
2026-05-07 19:36 38.33826 114.51201 5185 ft 214 kts 327°
2026-05-07 19:36 38.35231 114.50841 4928 ft 208 kts 10°
2026-05-07 19:36 38.36386 114.51794 4808 ft 197 kts 50°
2026-05-07 19:36 38.37074 114.53224 4771 ft 182 kts 60°
2026-05-07 19:37 38.37776 114.54516 4575 ft 174 kts 48°
2026-05-07 19:37 38.38578 114.55656 4317 ft 172 kts 47°
2026-05-07 19:37 38.39359 114.56804 4063 ft 171 kts 49°
2026-05-07 19:37 38.39991 114.58096 3735 ft 173 kts 63°
2026-05-07 19:38 38.40053 114.59589 3245 ft 174 kts 107°
2026-05-07 19:38 38.39254 114.60721 2678 ft 177 kts 152°
2026-05-07 19:38 38.38169 114.61464 2310 ft 177 kts 150°
2026-05-07 19:38 38.37206 114.62288 2069 ft 162 kts 149°
2026-05-07 19:39 38.36251 114.63054 1847 ft 160 kts 150°
2026-05-07 19:39 38.35315 114.63813 1632 ft 160 kts 150°
2026-05-07 19:39 38.34391 114.64566 1421 ft 158 kts 150°
2026-05-07 19:39 38.33471 114.65320 1208 ft 155 kts 149°
2026-05-07 19:40 38.32593 114.66069 924 ft 150 kts 146°
2026-05-07 19:40 38.31738 114.66759 799 ft 150 kts 149°
2026-05-07 19:40 38.30875 114.67445 573 ft 142 kts 148°
2026-05-07 19:40 38.30026 114.68135 419 ft 142 kts 148°
2026-05-07 19:41 38.29179 114.68825 265 ft 144 kts 147°
2026-05-07 19:41 38.28447 114.69419 242 ft 92 kts 147°
2026-05-07 19:41 38.28076 114.69720 242 ft 51 kts 147°
2026-05-07 19:41 38.27874 114.69852 244 ft 0 kts 204°
2026-05-07 19:42 38.27868 114.69844 244 ft 2 kts 222°
2026-05-07 19:42 38.27848 114.69814 244 ft 1 kts 231°
2026-05-07 19:42 38.27848 114.69813 244 ft 0 kts 231°
2026-05-07 19:43 38.27839 114.69796 243 ft 7 kts 234°
2026-05-07 19:43 38.27780 114.69679 242 ft 21 kts 238°
2026-05-07 19:43 38.27734 114.69548 241 ft 5 kts 265°
2026-05-07 19:43 38.27726 114.69519 241 ft 3 kts 246°
2026-05-07 19:44 38.27720 114.69503 241 ft 1 kts 238°
2026-05-07 19:44 38.27713 114.69489 241 ft 3 kts 238°
2026-05-07 19:44 38.27703 114.69471 241 ft 0 kts 237°